This is the latest recevied weather packets stored in our database for station/object N5LSN. If no packets are shown the sender has not sent any weather packets the latest 10 day(s).
| Time | Temp. | Humidity | Pressure | Rain* | Wind** | Luminosity | Snow |
|---|---|---|---|---|---|---|---|
| 1778097313 | 10.56° C | 99% | 1015.2 hPa | 0 mm | - | 250 W/m² | - |
| 1778097009 | 10° C | 99% | 1015.8 hPa | 0 mm | - | 185 W/m² | - |
| 1778096706 | 10° C | 99% | 1015.8 hPa | 0 mm | - | 133 W/m² | - |
| 1778096403 | 10° C | 99% | 1016 hPa | 0 mm | - | 139 W/m² | - |
| 1778096101 | 10° C | 99% | 1016.1 hPa | 0 mm | - | 147 W/m² | - |
| 1778095796 | 10° C | 99% | 1016.3 hPa | 0.51 mm | - | 175 W/m² | - |
| 1778095494 | 10° C | 99% | 1015.5 hPa | 1.27 mm | - | 101 W/m² | - |
| 1778095190 | 10° C | 99% | 1016.9 hPa | 2.29 mm | - | 76 W/m² | - |
| 1778094887 | 10° C | 99% | 1016.6 hPa | 2.29 mm | - | 89 W/m² | - |
| 1778094583 | 10° C | 99% | 1016.6 hPa | 0.51 mm | - | 67 W/m² | - |
| 1778094280 | 10° C | 99% | 1016.9 hPa | 1.27 mm | - | 69 W/m² | - |
| 1778093977 | 10° C | 99% | 1017.2 hPa | 1.78 mm | - | 57 W/m² | - |
| 1778093674 | 10° C | 99% | 1017.5 hPa | 1.27 mm | - | 59 W/m² | - |
| 1778093371 | 10° C | 99% | 1016.9 hPa | 0.51 mm | - | 51 W/m² | - |
| 1778093068 | 10° C | 99% | 1017.2 hPa | 0 mm | - | 82 W/m² | - |
| 1778092765 | 10° C | 99% | 1017.3 hPa | 0 mm | - | 94 W/m² | - |
| 1778092460 | 10° C | 99% | 1017.2 hPa | 0 mm | - | 118 W/m² | - |
| 1778092158 | 10° C | 99% | 1017.5 hPa | 0 mm | - | 116 W/m² | - |
| 1778091855 | 10° C | 98% | 1017 hPa | 0 mm | - | 142 W/m² | - |
| 1778091553 | 9.44° C | 99% | 1017.4 hPa | 0 mm | - | 94 W/m² | - |
| 1778091250 | 9.44° C | 98% | 1017.3 hPa | 0 mm | - | 89 W/m² | - |
| 1778090947 | 9.44° C | 99% | 1017.1 hPa | 0 mm | - | 135 W/m² | - |
| 1778090643 | 10° C | 99% | 1016.4 hPa | 0 mm | - | 132 W/m² | - |
| 1778090340 | 10° C | 98% | 1017 hPa | 0 mm | - | 115 W/m² | - |
| 1778090036 | 10° C | 98% | 1017.3 hPa | 0 mm | - | 48 W/m² | - |
* Rain latest hour (hover to see other rain measurements)
** Current wind speed in m/s (hover to see current wind gust speed)